Spokane Felts, WA

2:54 PM PDT on April 24, 2018 (GMT -0700)
Felts

Weather History for KSFF - July, 2013

Change the Weather History Date:

Wednesday, July 10, 2013

  Actual Average Record
Temperature  
Mean Temperature 75 °F 69 °F  
Max Temperature 94 °F 84 °F 97 °F (2001)
Min Temperature 56 °F 54 °F 45 °F (2000)
Degree Days  
Heating Degree Days 0 1  
Month to date heating degree days 0 13  
Since 1 June heating degree days 105 131  
Since 1 July heating degree days 0 13  
Cooling Degree Days 10 5  
Month to date cooling degree days 99 41  
Year to date cooling degree days 182 88  
Since 1 June cooling degree days 156 81  
Growing Degree Days 25 (Base 50)    
Moisture  
Dew Point 46 °F    
Average Humidity 45    
Maximum Humidity 77    
Minimum Humidity 13    
Precipitation  
Precipitation 0.00 in 0.04 in 0.08 in (2005)
Month to date precipitation T 0.39  
Year to date precipitation 7.96 9.61  
Sea Level Pressure  
Sea Level Pressure 29.85 in    
Wind  
Wind Speed 6 mph (West)    
Max Wind Speed 20 mph    
Max Gust Speed 26 mph    
Visibility 10 miles    
Events      
T = Trace of Precipitation, MM = Missing Value Source: NWS Daily Summary

Daily Weather History Graph

Daily Weather History Graph

Search for Another Location

Airport or City:

Astronomy

Jul. 10, 2013 Rise Set
Actual Time 5:02 AM PDT 8:46 PM PDT
Civil Twilight 4:22 AM PDT 9:26 PM PDT
Nautical Twilight 3:29 AM PDT 10:19 PM PDT
Astronomical Twilight 2:12 AM PDT 11:35 PM PDT
Moon 7:41 AM PDT (7/10) 9:42 PM PDT (7/10)
Length of Visible Light 17h 03m
Length of Day
15h 44m
Waxing Crescent, 6% of the Moon is Illuminated
Jul 10
Waxing Crescent
Jul 15
First Quarter
Jul 22
Full
Jul 29
Last Quarter
Aug 6
New

Hourly Weather History & Observations

Time (PDT) Temp. Dew Point Humidity Pressure Visibility Wind Dir Wind Speed Gust Speed Precip Events Conditions
12:53 AM 63.0 °F 48.0 °F 58% 29.96 in 10.0 mi NE 3.5 mph - N/A   Clear
1:53 AM 61.0 °F 50.0 °F 67% 29.96 in 10.0 mi NE 4.6 mph - N/A   Clear
2:53 AM 60.1 °F 50.0 °F 69% 29.95 in 10.0 mi NNE 4.6 mph - N/A   Clear
3:53 AM 59.0 °F 50.0 °F 72% 29.95 in 10.0 mi NNE 3.5 mph - N/A   Clear
4:53 AM 57.9 °F 48.9 °F 72% 29.94 in 10.0 mi NE 3.5 mph - N/A   Clear
5:53 AM 57.9 °F 50.0 °F 75% 29.94 in 10.0 mi Calm Calm - N/A   Clear
6:53 AM 63.0 °F 50.0 °F 63% 29.94 in 10.0 mi Calm Calm - N/A   Clear
7:53 AM 68.0 °F 51.1 °F 55% 29.94 in 10.0 mi Calm Calm - N/A   Clear
8:53 AM 73.9 °F 51.1 °F 45% 29.92 in 10.0 mi ESE 8.1 mph - N/A   Clear
9:53 AM 79.0 °F 51.1 °F 38% 29.91 in 10.0 mi ESE 4.6 mph - N/A   Clear
10:53 AM 84.0 °F 48.0 °F 28% 29.90 in 10.0 mi SW 10.4 mph - N/A   Clear
11:53 AM 86.0 °F 46.9 °F 26% 29.88 in 10.0 mi Variable 4.6 mph - N/A   Clear
12:53 PM 88.0 °F 44.1 °F 22% 29.86 in 10.0 mi Variable 3.5 mph - N/A   Clear
1:53 PM 91.0 °F 45.0 °F 20% 29.84 in 10.0 mi WSW 10.4 mph - N/A   Clear
2:53 PM 91.0 °F 45.0 °F 20% 29.81 in 10.0 mi WSW 5.8 mph 19.6 mph N/A   Clear
3:53 PM 93.9 °F 41.0 °F 16% 29.78 in 10.0 mi WSW 13.8 mph 24.2 mph N/A   Clear
4:53 PM 91.9 °F 39.9 °F 16% 29.76 in 10.0 mi WSW 12.7 mph 25.3 mph N/A   Clear
5:53 PM 91.0 °F 39.9 °F 17% 29.74 in 10.0 mi WSW 15.0 mph 21.9 mph N/A   Clear
6:53 PM 91.0 °F 33.1 °F 13% 29.72 in 10.0 mi WSW 15.0 mph 21.9 mph N/A   Clear
7:53 PM 87.1 °F 37.9 °F 18% 29.72 in 10.0 mi West 9.2 mph - N/A   Clear
8:53 PM 80.1 °F 39.0 °F 23% 29.72 in 10.0 mi Calm Calm - N/A   Clear
9:53 PM 71.1 °F 43.0 °F 36% 29.73 in 10.0 mi Calm Calm - N/A   Clear
10:53 PM 66.9 °F 46.0 °F 47% 29.73 in 10.0 mi Calm Calm - N/A   Clear
11:53 PM 64.9 °F 46.0 °F 50% 29.73 in 10.0 mi Calm Calm - N/A   Clear